SPACECUBE (42717 NORAD) Tracking and Keplerian Element Data

This shows tracking and keplerian element data for the satellite.

Feedback or suggestion? Click here.




ElementValue
Catalog42717
NameSPACECUBE
Epoch Orbit8432
Epoch Day316.46301894
Epoch Year2018
RAAN312.4567
Inclination51.6245
Eccentricity0.0004956
Argument of Perigee76.6178
Mean Anonmoly283.5376
Mean Motion15.82400774
Decay Rate0.0007008
L11 42717U 98067LY 18316.46301894 .00070080 00000-0 33061-3 0 9996
L22 42717 51.6245 312.4567 0004956 76.6178 283.5376 15.82400774 84322

Live tracking and technical data element details for SPACECUBE (NORAD 42717). SPACECUBE can be tracked NOW for your location showing map with azimuth and elevation plus other details from your city location.

Track the satellite on the map from your city or location and see movement details for azimuth, elevation, latitude, longitude, range, height, and movement on the map or in text.







IsCatalogInMostPopularTable: catalog: 42717, numindb: 148
Update: records affected: 1



GetName: 42717 SPACECUBE

Hit Count: updated at: Mon, 12 Nov 2018 18:26:44 GMT